Location: ????????
(55.0559°N, 39.1270°E)
Time: 08:22:06
(UTC+00:00)

Lacrosse 4 Rocket - Pass Details

Date: 15 November 2025
Orbit: 513 x 566 km, 68.0° (Epoch: 14 December)

Event Time Altitude Azimuth Distance (km) Brightness Sun altitude
Exits shadow 01:12:54 16° 35° (NE) 1,469 3.9 -31.4°
Drops below altitude 10° 01:14:37 10° 59° (ENE) 1,785 4.7 -31.2°
Sets 01:17:26 0° 81° (E) 2,661 6.0 -30.8°
